Skip Page Navigation
NASA JPL Caltech
NASA Logo - Jet Propulsion Laboratory + View the NASA Portal
+ Near-Earth Object (NEO) Program
Search JPL
JPL Home Earth Solar System Stars & Galaxies Technology
JPL Solar System Dynamics
BODIES ORBITS EPHEMERIDES TOOLS PHYSICAL DATA DISCOVERY FAQ SITE MAP
JPL Small-Body Database Browser
Search: [ help ]  
(2000 CP101)
Classification: Apollo [NEO, PHA]          SPK-ID: 3028810
Ephemeris | Orbit Diagram | Orbital Elements | Physical Parameters | Close-Approach Data ]

[ hide orbit diagram ]
Orbit Diagram
Note: Make sure you have Java enabled on your browser to see the applet. This applet is provided as a 3D orbit visualization tool. The applet was implemented using 2-body methods, and hence should not be used for determining accurate long-term trajectories (over several years or decades) or planetary encounter circumstances. For accurate long-term ephemerides, please instead use our Horizons system.
Orbit Viewer

Additional Notes: the orbits shown in the applet are color coded. The planets are white lines, and the asteroid/comet is a blue line. The bright white line indicates the portion of the orbit that is above the ecliptic plane, and the darker portion is below the ecliptic plane. Likewise for the asteroid/comet orbit, the light blue indicates the portion above the ecliptic plane, and the dark blue the portion below the ecliptic plane.

Orbit Viewer applet originally written and kindly provided by Osamu Ajiki (AstroArts), and further modified by Ron Baalke (JPL).


Orbital Elements at Epoch 2456400.5 (2013-Apr-18.0) TDB
Reference: JPL 42 (heliocentric ecliptic J2000)
 Element Value Uncertainty (1-sigma)   Units 
e .619221875801798 8.1373e-08  
a 1.774665505377484 7.2412e-09 AU
q .6757538022168924 1.4692e-07 AU
i 10.45044051678548 2.9167e-05 deg
node 160.4067598466077 6.4735e-05 deg
peri 247.7150592675584 6.5817e-05 deg
M 231.4761297317991 3.4466e-06 deg
tp 2456708.786482841399
(2014-Feb-20.28648284)
9.5171e-06 JED
period 863.5215667821574
2.36
5.2852e-06
1.447e-08
d
yr
n .4168975203960575 2.5516e-09 deg/d
Q 2.873577208538075 1.1725e-08 AU
  Orbit Determination Parameters
   # obs. used (total)      196  
   data-arc span      4419 days (12.10 yr)  
   first obs. used      2000-02-10  
   last obs. used      2012-03-17  
   planetary ephem.      DE405  
   SB-pert. ephem.      SB405-CPV-2  
   condition code      0  
   fit RMS      .45915  
   data source      ORB  
   producer      Otto Matic  
   solution date      2012-Mar-18 01:01:04  

Additional Information
 Earth MOID = .0441124 AU 
 T_jup = 3.834 
[ show covariance matrix ]

Ephemeris | Orbit Diagram | Orbital Elements | Physical Parameters | Close-Approach Data ]

Physical Parameter Table
Parameter Symbol Value Units Sigma Reference Notes
absolute magnitude H 19.61 mag .73314 42 autocmod 2.5b

[ show close-approach data ]
Ephemeris | Orbit Diagram | Orbital Elements | Physical Parameters | Close-Approach Data ]
ABOUT SSD CREDITS/AWARDS PRIVACY/COPYRIGHT GLOSSARY LINKS
FirstGov 2013-May-24 15:50 UT
(server date/time)  
NASA Home Page
Site Manager:   Donald K. Yeomans
Webmaster  Alan B. Chamberlin